Regional Weather Roundup
Issued by NWS

Home | Current Version | Previous Version | Graphics & Text | Print | Product List | Glossary Off
Versions: 1 2 3 4 5 6 7 8 9 10 11 12 13 14 15 16 17 18 19 20 21 22 23 24 25 26 27 28 29 30 31 32 33 34 35 36 37 38 39 40 41 42 43 44 45 46 47 48 49 50

000
ASUS43 KTOP 301510
RWRKS

STATE WEATHER ROUNDUP
NATIONAL WEATHER SERVICE DODGE CITY KS
 FOR NATIONAL WEATHER SERVICE GOODLAND KS
1000 AM CDT THU JUL 30 2015

NOTE:  "FAIR" INDICATES FEW OR NO CLOUDS BELOW 12,000 FEET WITH NO
SIGNIFICANT WEATHER AND/OR OBSTRUCTIONS TO VISIBILITY.

KSZ001>006-013>018-027>032-041>047-301600-
...NORTHWEST KANSAS...

CITY           SKY/WX    TMP DP  RH WIND       PRES   REMARKS
GOODLAND       SUNNY     73  65  75 SW14      30.30S
HAYS           CLOUDY   N/A N/A N/A SE6       30.28S
HILL CITY      MOSUNNY   75  66  73 S6        30.27F
RUSSELL        MOSUNNY   76  67  73 VRB5      30.25F
$$

KSZ061>065-074>080-084>089-301600-
...SOUTHWEST KANSAS...

CITY           SKY/WX    TMP DP  RH WIND       PRES   REMARKS
DODGE CITY     CLOUDY    72  66  81 E7        30.28R
ELKHART          N/A     71  65  81 N3          N/A
GARDEN CITY    CLOUDY    73  67  81 CALM      30.29R
GREAT BEND     CLOUDY    72  66  83 E3        30.26S
LIBERAL        CLOUDY    72  66  83 N7        30.29R
PRATT          LGT RAIN  68  66  94 SE6       30.27R
$$

KSZ066>073-081>083-090>101-301600-
...SOUTHEAST KANSAS...

CITY           SKY/WX    TMP DP  RH WIND       PRES   REMARKS
CHANUTE        CLOUDY    79  65  62 E8        30.21R
COFFEYVILLE    PTSUNNY   82  66  58 E8        30.18R
HUTCHINSON     RAIN      70  67  90 SE7       30.26R
MEDICINE LODGE   N/A     70  69  97 E6        30.26R
PARSONS        CLOUDY   N/A N/A N/A MISG      30.21R
WICHITA INTL   HVY RAIN  71  68  90 E7        30.26R FOG
WICHITA JABRA  RAIN      68 N/A N/A S5        30.27R
WICHITA MCCONL LGT RAIN  69  67  94 E5        30.27R FOG
WINFIELD       TSTM      70  69  97 N13       30.26R FOG
$$

KSZ007>012-019>026-033>040-048>060-102>105-301600-
...NORTHEAST KANSAS...

CITY           SKY/WX    TMP DP  RH WIND       PRES   REMARKS
CONCORDIA      SUNNY     77  66  68 S6        30.25S
EMPORIA        CLOUDY    72  66  81 CALM      30.25R
LAWRENCE       PTSUNNY   78  68  71 CALM      30.22S
MANHATTAN      PTSUNNY   76  67  73 CALM      30.24R
OLATHE IND     PTSUNNY   80  64  58 E5        30.23S
OLATHE EXE     PTSUNNY   80  61  52 CALM      30.22S
SALINA         PTSUNNY   74  66  76 SE5       30.25S
TOPEKA BILLARD PTSUNNY   76  69  79 CALM      30.23S
TOPEKA FORBES  PTSUNNY   78  66  66 VRB3      30.23R
$$


USA.gov is the U.S. government's official web portal to all federal, state and local government web resources and services.